Burlington, IA

4:12 PM CDT on August 19, 2017 (GMT -0500)
Burlington Regional

Weather History for KBRL - May, 2013

Change the Weather History Date:

Sunday, May 5, 2013

  Actual Average Record
Temperature  
Mean Temperature 60 °F 60 °F  
Max Temperature 72 °F 71 °F 92 °F (1949)
Min Temperature 47 °F 49 °F 32 °F (1944)
Degree Days  
Heating Degree Days 5 6  
Month to date heating degree days 56 33  
Since 1 July heating degree days 5830 5495  
Cooling Degree Days 0 1  
Month to date cooling degree days 3 5  
Year to date cooling degree days 14 25  
Growing Degree Days 8 (Base 50)    
Moisture  
Dew Point 52 °F    
Average Humidity 79    
Maximum Humidity 100    
Minimum Humidity 57    
Precipitation  
Precipitation T in 0.16 in 1.01 in (1991)
Month to date precipitation 3.71 0.82  
Year to date precipitation 15.41 10.23  
Sea Level Pressure  
Sea Level Pressure 30.00 in    
Wind  
Wind Speed 7 mph (North)    
Max Wind Speed 17 mph    
Max Gust Speed 22 mph    
Visibility 8 miles    
Events      
T = Trace of Precipitation, MM = Missing Value Source: NWS Daily Summary

Daily Weather History Graph

Daily Weather History Graph

Search for Another Location

Airport or City:

Trip Planner

Search our weather history database for the weather conditions in past years. The results will help you decide how hot, cold, wet, or windy it might be!

Date:

Astronomy

May. 05, 2013 Rise Set
Actual Time 5:57 AM CDT 8:05 PM CDT
Civil Twilight 5:27 AM CDT 8:35 PM CDT
Nautical Twilight 4:50 AM CDT 9:12 PM CDT
Astronomical Twilight 4:10 AM CDT 9:53 PM CDT
Moon 3:29 AM CDT (5/5) 4:03 PM CDT (5/5)
Length of Visible Light 15h 07m
Length of Day
14h 07m
Waning Crescent, 18% of the Moon is Illuminated
May 5
Waning Crescent
May 9
New
May 17
First Quarter
May 24
Full
May 31
Last Quarter

Hourly Weather History & Observations

Time (CDT) Temp. Dew Point Humidity Pressure Visibility Wind Dir Wind Speed Gust Speed Precip Events Conditions
12:53 AM 52.0 °F 50.0 °F 93% 30.04 in 10.0 mi Calm Calm - N/A   Overcast
1:53 AM 50.0 °F 48.9 °F 96% 30.01 in 10.0 mi Calm Calm - 0.01 in   Scattered Clouds
2:53 AM 50.0 °F 48.0 °F 93% 30.00 in 10.0 mi NNW 5.8 mph - N/A   Overcast
3:53 AM 48.9 °F 48.0 °F 97% 30.02 in 4.0 mi Calm Calm - N/A   Partly Cloudy
4:38 AM 46.4 °F 46.4 °F 100% 30.01 in 1.8 mi Calm Calm - N/A   Mostly Cloudy
4:48 AM 48.2 °F 48.2 °F 100% 30.01 in 3.0 mi Calm Calm - N/A   Overcast
4:53 AM 48.0 °F 46.9 °F 96% 30.02 in 5.0 mi Calm Calm - N/A   Overcast
5:00 AM 48.2 °F 48.2 °F 100% 30.02 in 6.0 mi Calm Calm - N/A   Overcast
5:53 AM 50.0 °F 48.9 °F 96% 30.02 in 5.0 mi NNW 6.9 mph - N/A   Overcast
6:16 AM 51.8 °F 51.8 °F 100% 30.03 in 4.0 mi NNW 4.6 mph - N/A   Overcast
6:25 AM 51.8 °F 51.8 °F 100% 30.03 in 3.0 mi NNW 4.6 mph - N/A   Overcast
6:53 AM 52.0 °F 51.1 °F 97% 30.04 in 6.0 mi North 4.6 mph - N/A   Overcast
7:31 AM 53.6 °F 51.8 °F 94% 30.02 in 9.0 mi North 5.8 mph - N/A   Mostly Cloudy
7:53 AM 53.1 °F 51.1 °F 93% 30.03 in 10.0 mi NNW 5.8 mph - N/A   Overcast
8:53 AM 57.0 °F 53.1 °F 87% 30.03 in 10.0 mi North 6.9 mph - N/A   Partly Cloudy
9:53 AM 60.1 °F 55.0 °F 83% 30.02 in 10.0 mi North 8.1 mph - N/A   Clear
10:53 AM 62.1 °F 55.9 °F 80% 30.02 in 10.0 mi North 11.5 mph - N/A   Mostly Cloudy
11:53 AM 63.0 °F 55.9 °F 78% 30.01 in 10.0 mi NNE 13.8 mph - 0.00 in   Overcast
12:53 PM 64.4 °F 57.2 °F 77% 29.98 in 10.0 mi North 12.7 mph - N/A   Overcast
1:53 PM 68.0 °F 55.9 °F 65% 29.96 in 10.0 mi North 12.7 mph - N/A   Clear
2:53 PM 71.1 °F 55.9 °F 59% 29.96 in 10.0 mi North 12.7 mph - N/A   Partly Cloudy
3:53 PM 71.1 °F 55.9 °F 59% 29.94 in 10.0 mi North 12.7 mph - N/A   Partly Cloudy
4:53 PM 71.1 °F 55.0 °F 57% 29.94 in 10.0 mi North 10.4 mph - 0.00 in   Mostly Cloudy
5:53 PM 68.0 °F 54.0 °F 61% 29.94 in 10.0 mi NNE 5.8 mph - 0.00 in   Mostly Cloudy
6:53 PM 66.0 °F 52.0 °F 60% 29.94 in 10.0 mi North 9.2 mph - N/A   Clear
7:53 PM 64.0 °F 51.1 °F 63% 29.95 in 10.0 mi North 8.1 mph - N/A   Clear
8:53 PM 63.0 °F 52.0 °F 67% 29.97 in 10.0 mi East 4.6 mph - N/A   Mostly Cloudy
9:53 PM 61.0 °F 50.0 °F 67% 29.99 in 10.0 mi SE 5.8 mph - N/A   Scattered Clouds
10:53 PM 61.0 °F 50.0 °F 67% 30.00 in 10.0 mi Calm Calm - N/A   Partly Cloudy
11:53 PM 55.9 °F 51.1 °F 84% 30.00 in 10.0 mi Calm Calm - N/A   Mostly Cloudy